Location: Unspecified
(0.0000°N, 0.0000°E)
Time: 03:12:29
(UTC+00:00)

N. Korean satellite - Pass Details

Date: 18 November 2019
Orbit: 456 x 506 km, 97.2° (Epoch: 10 November)

Event Time Altitude Azimuth Distance (km) Brightness Sun altitude
Rises 05:10:59 0° 22° (NNE) 2,559 10.3 -8.0°
Reaches altitude 10° 05:13:08 10° 29° (NNE) 1,673 9.4 -7.5°
Maximum altitude 05:16:33 42° 101° (E) 702 8.1 -6.7°
Drops below altitude 10° 05:19:56 10° 173° (S) 1,654 9.6 -5.9°
Sets 05:22:03 0° 180° (S) 2,526 10.5 -5.4°
